Year,Month,Day,Hour,Minute,Value (Times are PST for temperature in C)
2010,08,14,00,00,17.10
2010,08,14,00,01,17.10
2010,08,14,00,02,17.10
2010,08,14,00,03,17.00
2010,08,14,00,04,17.00
2010,08,14,00,05,17.00
2010,08,14,00,06,16.90
2010,08,14,00,07,16.90
2010,08,14,00,08,16.90
2010,08,14,00,09,16.90
2010,08,14,00,10,16.80
2010,08,14,00,11,16.80
2010,08,14,00,12,16.80
2010,08,14,00,13,16.80
2010,08,14,00,14,16.70
2010,08,14,00,15,16.70
2010,08,14,00,16,16.70
2010,08,14,00,17,16.70
2010,08,14,00,18,16.70
2010,08,14,00,19,16.70
2010,08,14,00,20,16.70
2010,08,14,00,21,16.70
2010,08,14,00,22,16.70
2010,08,14,00,23,16.70
2010,08,14,00,24,16.70
2010,08,14,00,25,16.70
2010,08,14,00,26,16.60
2010,08,14,00,27,16.60
2010,08,14,00,28,16.60
2010,08,14,00,29,16.60
2010,08,14,00,30,16.60
2010,08,14,00,31,16.60
2010,08,14,00,32,16.50
2010,08,14,00,33,16.50
2010,08,14,00,34,16.40
2010,08,14,00,35,16.40
2010,08,14,00,36,16.40
2010,08,14,00,37,16.30
2010,08,14,00,38,16.30
2010,08,14,00,39,16.30
2010,08,14,00,40,16.30
2010,08,14,00,41,16.20
2010,08,14,00,42,16.20
2010,08,14,00,43,16.20
2010,08,14,00,44,16.20
2010,08,14,00,45,16.20
2010,08,14,00,46,16.10
2010,08,14,00,47,16.10
2010,08,14,00,48,16.10
2010,08,14,00,49,16.10
2010,08,14,00,50,16.10
2010,08,14,00,51,16.10
2010,08,14,00,52,16.10
2010,08,14,00,53,16.10
2010,08,14,00,54,16.00
2010,08,14,00,55,16.00
2010,08,14,00,56,16.00
2010,08,14,00,57,15.90
2010,08,14,00,58,15.90
2010,08,14,00,59,15.90
2010,08,14,01,00,15.90
2010,08,14,01,01,15.90
2010,08,14,01,02,15.90
2010,08,14,01,03,15.90
2010,08,14,01,04,15.90
2010,08,14,01,05,15.90
2010,08,14,01,06,15.90
2010,08,14,01,07,15.90
2010,08,14,01,08,15.90
2010,08,14,01,09,15.90
2010,08,14,01,10,15.90
2010,08,14,01,11,15.90
2010,08,14,01,12,15.90
2010,08,14,01,13,15.80
2010,08,14,01,14,15.80
2010,08,14,01,15,15.80
2010,08,14,01,16,15.80
2010,08,14,01,17,15.80
2010,08,14,01,18,15.80
2010,08,14,01,19,15.70
2010,08,14,01,20,15.70
2010,08,14,01,21,15.70
2010,08,14,01,22,15.70
2010,08,14,01,23,15.70
2010,08,14,01,24,15.70
2010,08,14,01,25,15.70
2010,08,14,01,26,15.70
2010,08,14,01,27,15.70
2010,08,14,01,28,15.60
2010,08,14,01,29,15.60
2010,08,14,01,30,15.60
2010,08,14,01,31,15.60
2010,08,14,01,32,15.60
2010,08,14,01,33,15.60
2010,08,14,01,34,15.50
2010,08,14,01,35,15.50
2010,08,14,01,36,15.50
2010,08,14,01,37,15.50
2010,08,14,01,38,15.50
2010,08,14,01,39,15.40
2010,08,14,01,40,15.40
2010,08,14,01,41,15.40
2010,08,14,01,42,15.40
2010,08,14,01,43,15.40
2010,08,14,01,44,15.40
2010,08,14,01,45,15.40
2010,08,14,01,46,15.30
2010,08,14,01,47,15.30
2010,08,14,01,48,15.30
2010,08,14,01,49,15.30
2010,08,14,01,50,15.30
2010,08,14,01,51,15.30
2010,08,14,01,52,15.30
2010,08,14,01,53,15.30
2010,08,14,01,54,15.30
2010,08,14,01,55,15.30
2010,08,14,01,56,15.30
2010,08,14,01,57,15.30
2010,08,14,01,58,15.30
2010,08,14,01,59,15.30
2010,08,14,02,00,15.30
2010,08,14,02,01,15.30
2010,08,14,02,02,15.30
2010,08,14,02,03,15.30
2010,08,14,02,04,15.30
2010,08,14,02,05,15.20
2010,08,14,02,06,15.20
2010,08,14,02,07,15.20
2010,08,14,02,08,15.20
2010,08,14,02,09,15.20
2010,08,14,02,10,15.20
2010,08,14,02,11,15.30
2010,08,14,02,12,15.30
2010,08,14,02,13,15.30
2010,08,14,02,14,15.30
2010,08,14,02,15,15.30
2010,08,14,02,16,15.30
2010,08,14,02,17,15.30
2010,08,14,02,18,15.30
2010,08,14,02,19,15.30
2010,08,14,02,20,15.40
2010,08,14,02,21,15.40
2010,08,14,02,22,15.50
2010,08,14,02,23,15.50
2010,08,14,02,24,15.50
2010,08,14,02,25,15.60
2010,08,14,02,26,15.60
2010,08,14,02,27,15.60
2010,08,14,02,28,15.60
2010,08,14,02,29,15.60
2010,08,14,02,30,15.60
2010,08,14,02,31,15.70
2010,08,14,02,32,15.70
2010,08,14,02,33,15.70
2010,08,14,02,34,15.80
2010,08,14,02,35,15.80
2010,08,14,02,36,15.90
2010,08,14,02,37,15.90
2010,08,14,02,38,16.00
2010,08,14,02,39,16.00
2010,08,14,02,40,16.00
2010,08,14,02,41,16.10
2010,08,14,02,42,16.10
2010,08,14,02,43,16.10
2010,08,14,02,44,16.10
2010,08,14,02,45,16.20
2010,08,14,02,46,16.20
2010,08,14,02,47,16.30
2010,08,14,02,48,16.40
2010,08,14,02,49,16.40
2010,08,14,02,50,16.40
2010,08,14,02,51,16.40
2010,08,14,02,52,16.50
2010,08,14,02,53,16.60
2010,08,14,02,54,16.80
2010,08,14,02,55,16.90
2010,08,14,02,56,17.00
2010,08,14,02,57,17.00
2010,08,14,02,58,17.10
2010,08,14,02,59,17.10
2010,08,14,03,00,17.10
2010,08,14,03,01,17.10
2010,08,14,03,02,17.10
2010,08,14,03,03,17.20
2010,08,14,03,04,17.20
2010,08,14,03,05,17.20
2010,08,14,03,06,17.20
2010,08,14,03,07,17.30
2010,08,14,03,08,17.40
2010,08,14,03,09,17.50
2010,08,14,03,10,17.70
2010,08,14,03,11,17.80
2010,08,14,03,12,17.80
2010,08,14,03,13,17.90
2010,08,14,03,14,18.00
2010,08,14,03,15,18.10
2010,08,14,03,16,18.20
2010,08,14,03,17,18.20
2010,08,14,03,18,18.20
2010,08,14,03,19,18.30
2010,08,14,03,20,18.30
2010,08,14,03,21,18.30
2010,08,14,03,22,18.30
2010,08,14,03,23,18.30
2010,08,14,03,24,18.30
2010,08,14,03,25,18.30
2010,08,14,03,26,18.30
2010,08,14,03,27,18.30
2010,08,14,03,28,18.30
2010,08,14,03,29,18.30
2010,08,14,03,30,18.30
2010,08,14,03,31,18.30
2010,08,14,03,32,18.40
2010,08,14,03,33,18.40
2010,08,14,03,34,18.40
2010,08,14,03,35,18.40
2010,08,14,03,36,18.50
2010,08,14,03,37,18.40
2010,08,14,03,38,18.40
2010,08,14,03,39,18.40
2010,08,14,03,40,18.40
2010,08,14,03,41,18.30
2010,08,14,03,42,18.30
2010,08,14,03,43,18.30
2010,08,14,03,44,18.30
2010,08,14,03,45,18.30
2010,08,14,03,46,18.30
2010,08,14,03,47,18.20
2010,08,14,03,48,18.20
2010,08,14,03,49,18.20
2010,08,14,03,50,18.20
2010,08,14,03,51,18.20
2010,08,14,03,52,18.10
2010,08,14,03,53,18.10
2010,08,14,03,54,18.10
2010,08,14,03,55,18.10
2010,08,14,03,56,18.00
2010,08,14,03,57,18.00
2010,08,14,03,58,18.00
2010,08,14,03,59,18.00
2010,08,14,04,00,17.90
2010,08,14,04,01,17.90
2010,08,14,04,02,17.90
2010,08,14,04,03,17.90
2010,08,14,04,04,17.90
2010,08,14,04,05,17.90
2010,08,14,04,06,17.90
2010,08,14,04,07,17.80
2010,08,14,04,08,17.80
2010,08,14,04,09,17.80
2010,08,14,04,10,17.80
2010,08,14,04,11,17.80
2010,08,14,04,12,17.70
2010,08,14,04,13,17.70
2010,08,14,04,14,17.70
2010,08,14,04,15,17.70
2010,08,14,04,16,17.70
2010,08,14,04,17,17.70
2010,08,14,04,18,17.70
2010,08,14,04,19,17.70
2010,08,14,04,20,17.70
2010,08,14,04,21,17.70
2010,08,14,04,22,17.70
2010,08,14,04,23,17.70
2010,08,14,04,24,17.70
2010,08,14,04,25,17.70
2010,08,14,04,26,17.70
2010,08,14,04,27,17.70
2010,08,14,04,28,17.70
2010,08,14,04,29,17.70
2010,08,14,04,30,17.70
2010,08,14,04,31,17.60
2010,08,14,04,32,17.60
2010,08,14,04,33,17.60
2010,08,14,04,34,17.60
2010,08,14,04,35,17.60
2010,08,14,04,36,17.60
2010,08,14,04,37,17.60
2010,08,14,04,38,17.70
2010,08,14,04,39,17.70
2010,08,14,04,40,17.80
2010,08,14,04,41,17.80
2010,08,14,04,42,17.90
2010,08,14,04,43,17.90
2010,08,14,04,44,17.90
2010,08,14,04,45,18.00
2010,08,14,04,46,18.00
2010,08,14,04,47,18.10
2010,08,14,04,48,18.20
2010,08,14,04,49,18.30
2010,08,14,04,50,18.30
2010,08,14,04,51,18.30
2010,08,14,04,52,18.30
2010,08,14,04,53,18.40
2010,08,14,04,54,18.40
2010,08,14,04,55,18.40
2010,08,14,04,56,18.40
2010,08,14,04,57,18.40
2010,08,14,04,58,18.40
2010,08,14,04,59,18.40
2010,08,14,05,00,18.40
2010,08,14,05,01,18.30
2010,08,14,05,02,18.30
2010,08,14,05,03,18.30
2010,08,14,05,04,18.30
2010,08,14,05,05,18.30
2010,08,14,05,06,18.20
2010,08,14,05,07,18.20
2010,08,14,05,08,18.30
2010,08,14,05,09,18.30
2010,08,14,05,10,18.40
2010,08,14,05,11,18.40
2010,08,14,05,12,18.40
2010,08,14,05,13,18.40
2010,08,14,05,14,18.30
2010,08,14,05,15,18.30
2010,08,14,05,16,18.30
2010,08,14,05,17,18.30
2010,08,14,05,18,18.20
2010,08,14,05,19,18.20
2010,08,14,05,20,18.20
2010,08,14,05,21,18.20
2010,08,14,05,22,18.20
2010,08,14,05,23,18.20
2010,08,14,05,24,18.20
2010,08,14,05,25,18.20
2010,08,14,05,26,18.20
2010,08,14,05,27,18.10
2010,08,14,05,28,18.10
2010,08,14,05,29,18.10
2010,08,14,05,30,18.10
2010,08,14,05,31,18.10
2010,08,14,05,32,18.10
2010,08,14,05,33,18.20
2010,08,14,05,34,18.20
2010,08,14,05,35,18.20
2010,08,14,05,36,18.20
2010,08,14,05,37,18.20
2010,08,14,05,38,18.20
2010,08,14,05,39,18.20
2010,08,14,05,40,18.20
2010,08,14,05,41,18.20
2010,08,14,05,42,18.20
2010,08,14,05,43,18.20
2010,08,14,05,44,18.20
2010,08,14,05,45,18.10
2010,08,14,05,46,18.10
2010,08,14,05,47,18.10
2010,08,14,05,48,18.20
2010,08,14,05,49,18.10
2010,08,14,05,50,18.10
2010,08,14,05,51,18.10
2010,08,14,05,52,18.10
2010,08,14,05,53,18.10
2010,08,14,05,54,18.10
2010,08,14,05,55,18.10
2010,08,14,05,56,18.00
2010,08,14,05,57,18.00
2010,08,14,05,58,17.90
2010,08,14,05,59,17.80
2010,08,14,06,00,17.70
2010,08,14,06,01,17.70
2010,08,14,06,02,17.60
2010,08,14,06,03,17.50
2010,08,14,06,04,17.50
2010,08,14,06,05,17.40
2010,08,14,06,06,17.30
2010,08,14,06,07,17.30
2010,08,14,06,08,17.20
2010,08,14,06,09,17.20
2010,08,14,06,10,17.20
2010,08,14,06,11,17.20
2010,08,14,06,12,17.20
2010,08,14,06,13,17.10
2010,08,14,06,14,17.10
2010,08,14,06,15,17.10
2010,08,14,06,16,17.10
2010,08,14,06,17,17.10
2010,08,14,06,18,17.10
2010,08,14,06,19,17.10
2010,08,14,06,20,17.10
2010,08,14,06,21,17.10
2010,08,14,06,22,17.10
2010,08,14,06,23,17.10
2010,08,14,06,24,17.10
2010,08,14,06,25,17.10
2010,08,14,06,26,17.10
2010,08,14,06,27,17.10
2010,08,14,06,28,17.10
2010,08,14,06,29,17.10
2010,08,14,06,30,17.10
2010,08,14,06,31,17.10
2010,08,14,06,32,17.10
2010,08,14,06,33,17.10
2010,08,14,06,34,17.10
2010,08,14,06,35,17.20
2010,08,14,06,36,17.20
2010,08,14,06,37,17.20
2010,08,14,06,38,17.20
2010,08,14,06,39,17.10
2010,08,14,06,40,17.10
2010,08,14,06,41,17.10
2010,08,14,06,42,17.10
2010,08,14,06,43,17.10
2010,08,14,06,44,17.10
2010,08,14,06,45,17.10
2010,08,14,06,46,17.20
2010,08,14,06,47,17.30
2010,08,14,06,48,17.40
2010,08,14,06,49,17.50
2010,08,14,06,50,17.60
2010,08,14,06,51,17.60
2010,08,14,06,52,17.70
2010,08,14,06,53,17.70
2010,08,14,06,54,17.70
2010,08,14,06,55,17.70
2010,08,14,06,56,17.70
2010,08,14,06,57,17.70
2010,08,14,06,58,17.70
2010,08,14,06,59,17.80
2010,08,14,07,00,17.80
2010,08,14,07,01,17.80
2010,08,14,07,02,17.90
2010,08,14,07,03,17.90
2010,08,14,07,04,17.90
2010,08,14,07,05,17.90
2010,08,14,07,06,17.90
2010,08,14,07,07,18.00
2010,08,14,07,08,18.00
2010,08,14,07,09,18.00
2010,08,14,07,10,17.90
2010,08,14,07,11,17.90
2010,08,14,07,12,17.90
2010,08,14,07,13,18.00
2010,08,14,07,14,18.00
2010,08,14,07,15,18.10
2010,08,14,07,16,18.20
2010,08,14,07,17,18.30
2010,08,14,07,18,18.50
2010,08,14,07,19,18.50
2010,08,14,07,20,18.60
2010,08,14,07,21,18.60
2010,08,14,07,22,18.60
2010,08,14,07,23,18.70
2010,08,14,07,24,18.70
2010,08,14,07,25,18.70
2010,08,14,07,26,18.70
2010,08,14,07,27,18.80
2010,08,14,07,28,18.80
2010,08,14,07,29,18.80
2010,08,14,07,30,18.80
2010,08,14,07,31,18.80
2010,08,14,07,32,18.80
2010,08,14,07,33,18.90
2010,08,14,07,34,18.90
2010,08,14,07,35,18.90
2010,08,14,07,36,18.90
2010,08,14,07,37,18.90
2010,08,14,07,38,19.00
2010,08,14,07,39,19.00
2010,08,14,07,40,19.00
2010,08,14,07,41,19.10
2010,08,14,07,42,19.10
2010,08,14,07,43,19.10
2010,08,14,07,44,19.10
2010,08,14,07,45,19.10
2010,08,14,07,46,19.10
2010,08,14,07,47,19.10
2010,08,14,07,48,19.10
2010,08,14,07,49,19.20
2010,08,14,07,50,19.20
2010,08,14,07,51,19.20
2010,08,14,07,52,19.30
2010,08,14,07,53,19.30
2010,08,14,07,54,19.40
2010,08,14,07,55,19.40
2010,08,14,07,56,19.50
2010,08,14,07,57,19.50
2010,08,14,07,58,19.60
2010,08,14,07,59,19.70
2010,08,14,08,00,19.80
2010,08,14,08,01,19.80
2010,08,14,08,02,19.90
2010,08,14,08,03,20.00
2010,08,14,08,04,20.00
2010,08,14,08,05,20.10
2010,08,14,08,06,20.20
2010,08,14,08,07,20.30
2010,08,14,08,08,20.40
2010,08,14,08,09,20.50
2010,08,14,08,10,20.60
2010,08,14,08,11,20.70
2010,08,14,08,12,20.80
2010,08,14,08,13,21.00
2010,08,14,08,14,21.10
2010,08,14,08,15,21.30
2010,08,14,08,16,21.40
2010,08,14,08,17,21.60
2010,08,14,08,18,21.70
2010,08,14,08,19,21.80
2010,08,14,08,20,21.90
2010,08,14,08,21,22.00
2010,08,14,08,22,22.20
2010,08,14,08,23,22.30
2010,08,14,08,24,22.50
2010,08,14,08,25,22.70
2010,08,14,08,26,22.90
2010,08,14,08,27,23.10
2010,08,14,08,28,23.20
2010,08,14,08,29,23.30
2010,08,14,08,30,23.50
2010,08,14,08,31,23.60
2010,08,14,08,32,23.70
2010,08,14,08,33,23.80
2010,08,14,08,34,24.00
2010,08,14,08,35,24.10
2010,08,14,08,36,24.20
2010,08,14,08,37,24.30
2010,08,14,08,38,24.50
2010,08,14,08,39,24.60
2010,08,14,08,40,24.70
2010,08,14,08,41,24.80
2010,08,14,08,42,24.90
2010,08,14,08,43,25.00
2010,08,14,08,44,25.10
2010,08,14,08,45,25.20
2010,08,14,08,46,25.30
2010,08,14,08,47,25.30
2010,08,14,08,48,25.40
2010,08,14,08,49,25.50
2010,08,14,08,50,25.50
2010,08,14,08,51,25.60
2010,08,14,08,52,25.70
2010,08,14,08,53,25.70
2010,08,14,08,54,25.80
2010,08,14,08,55,25.80
2010,08,14,08,56,25.90
2010,08,14,08,57,25.90
2010,08,14,08,58,25.90
2010,08,14,08,59,25.90
2010,08,14,09,00,25.90
2010,08,14,09,01,26.00
2010,08,14,09,02,26.00
2010,08,14,09,03,26.00
2010,08,14,09,04,26.00
2010,08,14,09,05,26.00
2010,08,14,09,06,26.10
2010,08,14,09,07,26.10
2010,08,14,09,08,26.10
2010,08,14,09,09,26.00
2010,08,14,09,10,26.00
2010,08,14,09,11,26.00
2010,08,14,09,12,26.00
2010,08,14,09,13,26.00
2010,08,14,09,14,26.00
2010,08,14,09,15,26.00
2010,08,14,09,16,25.90
2010,08,14,09,17,26.00
2010,08,14,09,18,26.00
2010,08,14,09,19,26.10
2010,08,14,09,20,26.10
2010,08,14,09,21,26.10
2010,08,14,09,22,26.10
2010,08,14,09,23,26.10
2010,08,14,09,24,26.10
2010,08,14,09,25,26.10
2010,08,14,09,26,26.10
2010,08,14,09,27,26.10
2010,08,14,09,28,26.20
2010,08,14,09,29,26.20
2010,08,14,09,30,26.20
2010,08,14,09,31,26.20
2010,08,14,09,32,26.30
2010,08,14,09,33,26.30
2010,08,14,09,34,26.30
2010,08,14,09,35,26.30
2010,08,14,09,36,26.30
2010,08,14,09,37,26.30
2010,08,14,09,38,26.30
2010,08,14,09,39,26.30
2010,08,14,09,40,26.30
2010,08,14,09,41,26.30
2010,08,14,09,42,26.30
2010,08,14,09,43,26.30
2010,08,14,09,44,26.40
2010,08,14,09,45,26.40
2010,08,14,09,46,26.40
2010,08,14,09,47,26.50
2010,08,14,09,48,26.50
2010,08,14,09,49,26.60
2010,08,14,09,50,26.70
2010,08,14,09,51,26.70
2010,08,14,09,52,26.70
2010,08,14,09,53,26.70
2010,08,14,09,54,26.70
2010,08,14,09,55,26.70
2010,08,14,09,56,26.70
2010,08,14,09,57,26.70
2010,08,14,09,58,26.80
2010,08,14,09,59,26.80
2010,08,14,10,00,26.80
2010,08,14,10,01,26.80
2010,08,14,10,02,26.90
2010,08,14,10,03,26.90
2010,08,14,10,04,27.00
2010,08,14,10,05,27.00
2010,08,14,10,06,26.90
2010,08,14,10,07,26.90
2010,08,14,10,08,26.90
2010,08,14,10,09,27.00
2010,08,14,10,10,27.00
2010,08,14,10,11,27.10
2010,08,14,10,12,27.10
2010,08,14,10,13,27.10
2010,08,14,10,14,27.10
2010,08,14,10,15,27.10
2010,08,14,10,16,27.20
2010,08,14,10,17,27.20
2010,08,14,10,18,27.20
2010,08,14,10,19,27.30
2010,08,14,10,20,27.40
2010,08,14,10,21,27.40
2010,08,14,10,22,27.40
2010,08,14,10,23,27.40
2010,08,14,10,24,27.40
2010,08,14,10,25,27.40
2010,08,14,10,26,27.30
2010,08,14,10,27,27.30
2010,08,14,10,28,27.30
2010,08,14,10,29,27.30
2010,08,14,10,30,27.30
2010,08,14,10,31,27.30
2010,08,14,10,32,27.40
2010,08,14,10,33,27.40
2010,08,14,10,34,27.40
2010,08,14,10,35,27.30
2010,08,14,10,36,27.30
2010,08,14,10,37,27.30
2010,08,14,10,38,27.40
2010,08,14,10,39,27.40
2010,08,14,10,40,27.40
2010,08,14,10,41,27.50
2010,08,14,10,42,27.40
2010,08,14,10,43,27.40
2010,08,14,10,44,27.40
2010,08,14,10,45,27.40
2010,08,14,10,46,27.50
2010,08,14,10,47,27.40
2010,08,14,10,48,27.40
2010,08,14,10,49,27.50
2010,08,14,10,50,27.40
2010,08,14,10,51,27.40
2010,08,14,10,52,27.40
2010,08,14,10,53,27.40
2010,08,14,10,54,27.40
2010,08,14,10,55,27.40
2010,08,14,10,56,27.40
2010,08,14,10,57,27.40
2010,08,14,10,58,27.40
2010,08,14,10,59,27.40
2010,08,14,11,00,27.40
2010,08,14,11,01,27.40
2010,08,14,11,02,27.40
2010,08,14,11,03,27.50
2010,08,14,11,04,27.50
2010,08,14,11,05,27.50
2010,08,14,11,06,27.50
2010,08,14,11,07,27.40
2010,08,14,11,08,27.40
2010,08,14,11,09,27.40
2010,08,14,11,10,27.40
2010,08,14,11,11,27.40
2010,08,14,11,12,27.50
2010,08,14,11,13,27.40
2010,08,14,11,14,27.40
2010,08,14,11,15,27.40
2010,08,14,11,16,27.50
2010,08,14,11,17,27.50
2010,08,14,11,18,27.60
2010,08,14,11,19,27.60
2010,08,14,11,20,27.70
2010,08,14,11,21,27.70
2010,08,14,11,22,27.80
2010,08,14,11,23,27.80
2010,08,14,11,24,27.90
2010,08,14,11,25,27.90
2010,08,14,11,26,27.90
2010,08,14,11,27,28.00
2010,08,14,11,28,28.00
2010,08,14,11,29,28.00
2010,08,14,11,30,27.90
2010,08,14,11,31,27.90
2010,08,14,11,32,27.90
2010,08,14,11,33,27.90
2010,08,14,11,34,27.90
2010,08,14,11,35,27.90
2010,08,14,11,36,27.90
2010,08,14,11,37,28.00
2010,08,14,11,38,28.00
2010,08,14,11,39,28.00
2010,08,14,11,40,28.00
2010,08,14,11,41,28.00
2010,08,14,11,42,28.10
2010,08,14,11,43,28.10
2010,08,14,11,44,28.10
2010,08,14,11,45,28.10
2010,08,14,11,46,28.10
2010,08,14,11,47,28.10
2010,08,14,11,48,28.10
2010,08,14,11,49,28.10
2010,08,14,11,50,28.10
2010,08,14,11,51,28.20
2010,08,14,11,52,28.20
2010,08,14,11,53,28.30
2010,08,14,11,54,28.30
2010,08,14,11,55,28.30
2010,08,14,11,56,28.30
2010,08,14,11,57,28.30
2010,08,14,11,58,28.30
2010,08,14,11,59,28.30
2010,08,14,12,00,28.40
2010,08,14,12,01,28.40
2010,08,14,12,02,28.40
2010,08,14,12,03,28.40
2010,08,14,12,04,28.40
2010,08,14,12,05,28.40
2010,08,14,12,06,28.40
2010,08,14,12,07,28.40
2010,08,14,12,08,28.50
2010,08,14,12,09,28.60
2010,08,14,12,10,28.60
2010,08,14,12,11,28.70
2010,08,14,12,12,28.70
2010,08,14,12,13,28.80
2010,08,14,12,14,28.90
2010,08,14,12,15,28.90
2010,08,14,12,16,28.90
2010,08,14,12,17,29.00
2010,08,14,12,18,29.00
2010,08,14,12,19,29.00
2010,08,14,12,20,29.00
2010,08,14,12,21,29.00
2010,08,14,12,22,28.90
2010,08,14,12,23,28.90
2010,08,14,12,24,28.90
2010,08,14,12,25,28.90
2010,08,14,12,26,28.80
2010,08,14,12,27,28.80
2010,08,14,12,28,28.80
2010,08,14,12,29,28.80
2010,08,14,12,30,28.80
2010,08,14,12,31,28.80
2010,08,14,12,32,28.80
2010,08,14,12,33,28.90
2010,08,14,12,34,29.00
2010,08,14,12,35,29.10
2010,08,14,12,36,29.10
2010,08,14,12,37,29.20
2010,08,14,12,38,29.20
2010,08,14,12,39,29.30
2010,08,14,12,40,29.40
2010,08,14,12,41,29.40
2010,08,14,12,42,29.50
2010,08,14,12,43,29.50
2010,08,14,12,44,29.50
2010,08,14,12,45,29.60
2010,08,14,12,46,29.60
2010,08,14,12,47,29.60
2010,08,14,12,48,29.60
2010,08,14,12,49,29.60
2010,08,14,12,50,29.70
2010,08,14,12,51,29.70
2010,08,14,12,52,29.70
2010,08,14,12,53,29.70
2010,08,14,12,54,29.70
2010,08,14,12,55,29.70
2010,08,14,12,56,29.70
2010,08,14,12,57,29.70
2010,08,14,12,58,29.80
2010,08,14,12,59,29.80
2010,08,14,13,00,29.80
2010,08,14,13,01,29.90
2010,08,14,13,02,30.00
2010,08,14,13,03,30.10
2010,08,14,13,04,30.20
2010,08,14,13,05,30.40
2010,08,14,13,06,30.50
2010,08,14,13,07,30.50
2010,08,14,13,08,30.60
2010,08,14,13,09,30.60
2010,08,14,13,10,30.60
2010,08,14,13,11,30.50
2010,08,14,13,12,30.40
2010,08,14,13,13,30.30
2010,08,14,13,14,30.30
2010,08,14,13,15,30.00
2010,08,14,13,16,29.70
2010,08,14,13,17,29.40
2010,08,14,13,18,29.20
2010,08,14,13,19,28.90
2010,08,14,13,20,28.70
2010,08,14,13,21,28.60
2010,08,14,13,22,28.60
2010,08,14,13,23,28.60
2010,08,14,13,24,28.60
2010,08,14,13,25,28.60
2010,08,14,13,26,28.60
2010,08,14,13,27,28.60
2010,08,14,13,28,28.60
2010,08,14,13,29,28.70
2010,08,14,13,30,28.70
2010,08,14,13,31,28.80
2010,08,14,13,32,28.90
2010,08,14,13,33,29.00
2010,08,14,13,34,29.10
2010,08,14,13,35,29.20
2010,08,14,13,36,29.30
2010,08,14,13,37,29.40
2010,08,14,13,38,29.50
2010,08,14,13,39,29.60
2010,08,14,13,40,29.50
2010,08,14,13,41,29.50
2010,08,14,13,42,29.60
2010,08,14,13,43,29.60
2010,08,14,13,44,29.60
2010,08,14,13,45,29.70
2010,08,14,13,46,29.70
2010,08,14,13,47,29.80
2010,08,14,13,48,29.90
2010,08,14,13,49,30.00
2010,08,14,13,50,30.00
2010,08,14,13,51,30.10
2010,08,14,13,52,30.10
2010,08,14,13,53,30.10
2010,08,14,13,54,30.10
2010,08,14,13,55,30.10
2010,08,14,13,56,30.10
2010,08,14,13,57,30.00
2010,08,14,13,58,30.00
2010,08,14,13,59,29.90
2010,08,14,14,00,29.90
2010,08,14,14,01,29.90
2010,08,14,14,02,29.90
2010,08,14,14,03,30.00
2010,08,14,14,04,30.00
2010,08,14,14,05,30.10
2010,08,14,14,06,30.10
2010,08,14,14,07,30.10
2010,08,14,14,08,30.20
2010,08,14,14,09,30.30
2010,08,14,14,10,30.40
2010,08,14,14,11,30.50
2010,08,14,14,12,30.50
2010,08,14,14,13,30.50
2010,08,14,14,14,30.50
2010,08,14,14,15,30.50
2010,08,14,14,16,30.40
2010,08,14,14,17,30.40
2010,08,14,14,18,30.30
2010,08,14,14,19,30.30
2010,08,14,14,20,30.30
2010,08,14,14,21,30.30
2010,08,14,14,22,30.40
2010,08,14,14,23,30.40
2010,08,14,14,24,30.50
2010,08,14,14,25,30.50
2010,08,14,14,26,30.60
2010,08,14,14,27,30.60
2010,08,14,14,28,30.60
2010,08,14,14,29,30.50
2010,08,14,14,30,30.40
2010,08,14,14,31,30.30
2010,08,14,14,32,30.30
2010,08,14,14,33,30.20
2010,08,14,14,34,30.20
2010,08,14,14,35,30.20
2010,08,14,14,36,30.20
2010,08,14,14,37,30.20
2010,08,14,14,38,30.10
2010,08,14,14,39,30.10
2010,08,14,14,40,30.10
2010,08,14,14,41,30.00
2010,08,14,14,42,30.00
2010,08,14,14,43,30.10
2010,08,14,14,44,30.10
2010,08,14,14,45,30.20
2010,08,14,14,46,30.20
2010,08,14,14,47,30.30
2010,08,14,14,48,30.30
2010,08,14,14,49,30.30
2010,08,14,14,50,30.30
2010,08,14,14,51,30.40
2010,08,14,14,52,30.40
2010,08,14,14,53,30.50
2010,08,14,14,54,30.50
2010,08,14,14,55,30.50
2010,08,14,14,56,30.50
2010,08,14,14,57,30.50
2010,08,14,14,58,30.60
2010,08,14,14,59,30.60
2010,08,14,15,00,30.60
2010,08,14,15,01,30.60
2010,08,14,15,02,30.70
2010,08,14,15,03,30.70
2010,08,14,15,04,30.80
2010,08,14,15,05,30.90
2010,08,14,15,06,30.90
2010,08,14,15,07,31.00
2010,08,14,15,08,31.00
2010,08,14,15,09,31.10
2010,08,14,15,10,31.10
2010,08,14,15,11,31.10
2010,08,14,15,12,31.10
2010,08,14,15,13,31.20
2010,08,14,15,14,31.20
2010,08,14,15,15,31.20
2010,08,14,15,16,31.30
2010,08,14,15,17,31.30
2010,08,14,15,18,31.40
2010,08,14,15,19,31.40
2010,08,14,15,20,31.40
2010,08,14,15,21,31.40
2010,08,14,15,22,31.40
2010,08,14,15,23,31.40
2010,08,14,15,24,31.50
2010,08,14,15,25,31.50
2010,08,14,15,26,31.60
2010,08,14,15,27,31.60
2010,08,14,15,28,31.60
2010,08,14,15,29,31.60
2010,08,14,15,30,31.50
2010,08,14,15,31,31.30
2010,08,14,15,32,31.20
2010,08,14,15,33,31.20
2010,08,14,15,34,31.10
2010,08,14,15,35,31.10
2010,08,14,15,36,31.10
2010,08,14,15,37,31.10
2010,08,14,15,38,31.10
2010,08,14,15,39,31.20
2010,08,14,15,40,31.30
2010,08,14,15,41,31.40
2010,08,14,15,42,31.50
2010,08,14,15,43,31.50
2010,08,14,15,44,31.60
2010,08,14,15,45,31.60
2010,08,14,15,46,31.60
2010,08,14,15,47,31.50
2010,08,14,15,48,31.40
2010,08,14,15,49,31.30
2010,08,14,15,50,31.30
2010,08,14,15,51,31.20
2010,08,14,15,52,31.20
2010,08,14,15,53,31.10
2010,08,14,15,54,31.10
2010,08,14,15,55,31.10
2010,08,14,15,56,31.10
2010,08,14,15,57,31.10
2010,08,14,15,58,31.10
2010,08,14,15,59,31.10
2010,08,14,16,00,31.00
2010,08,14,16,01,31.00
2010,08,14,16,02,31.00
2010,08,14,16,03,31.00
2010,08,14,16,04,31.00
2010,08,14,16,05,31.00
2010,08,14,16,06,31.00
2010,08,14,16,07,31.00
2010,08,14,16,08,30.90
2010,08,14,16,09,30.90
2010,08,14,16,10,30.90
2010,08,14,16,11,30.90
2010,08,14,16,12,30.90
2010,08,14,16,13,30.90
2010,08,14,16,14,30.90
2010,08,14,16,15,30.80
2010,08,14,16,16,30.80
2010,08,14,16,17,30.80
2010,08,14,16,18,30.80
2010,08,14,16,19,30.80
2010,08,14,16,20,30.80
2010,08,14,16,21,30.80
2010,08,14,16,22,30.90
2010,08,14,16,23,30.90
2010,08,14,16,24,30.90
2010,08,14,16,25,30.90
2010,08,14,16,26,30.90
2010,08,14,16,27,30.90
2010,08,14,16,28,30.90
2010,08,14,16,29,30.90
2010,08,14,16,30,30.90
2010,08,14,16,31,30.90
2010,08,14,16,32,30.90
2010,08,14,16,33,30.90
2010,08,14,16,34,30.90
2010,08,14,16,35,30.80
2010,08,14,16,36,30.80
2010,08,14,16,37,30.80
2010,08,14,16,38,30.80
2010,08,14,16,39,30.80
2010,08,14,16,40,30.80
2010,08,14,16,41,30.80
2010,08,14,16,42,30.80
2010,08,14,16,43,30.80
2010,08,14,16,44,30.80
2010,08,14,16,45,30.80
2010,08,14,16,46,30.80
2010,08,14,16,47,30.90
2010,08,14,16,48,30.90
2010,08,14,16,49,30.90
2010,08,14,16,50,30.90
2010,08,14,16,51,30.80
2010,08,14,16,52,30.80
2010,08,14,16,53,30.80
2010,08,14,16,54,30.80
2010,08,14,16,55,30.70
2010,08,14,16,56,30.70
2010,08,14,16,57,30.70
2010,08,14,16,58,30.60
2010,08,14,16,59,30.60
2010,08,14,17,00,30.70
2010,08,14,17,01,30.60
2010,08,14,17,02,30.70
2010,08,14,17,03,30.70
2010,08,14,17,04,30.60
2010,08,14,17,05,30.60
2010,08,14,17,06,30.60
2010,08,14,17,07,30.60
2010,08,14,17,08,30.60
2010,08,14,17,09,30.60
2010,08,14,17,10,30.60
2010,08,14,17,11,30.60
2010,08,14,17,12,30.60
2010,08,14,17,13,30.60
2010,08,14,17,14,30.60
2010,08,14,17,15,30.60
2010,08,14,17,16,30.60
2010,08,14,17,17,30.60
2010,08,14,17,18,30.60
2010,08,14,17,19,30.60